TimePDT,TemperatureF,Dew PointF,Humidity,Sea Level PressureIn,VisibilityMPH,Wind Direction,Wind SpeedMPH,Gust SpeedMPH,PrecipitationIn,Events,Conditions,WindDirDegrees,DateUTC
12:52 AM,69.1,44.1,40,29.68,10.0,North,6.9,-,N/A,,Clear,350,2013-10-28 07:52:00
1:52 AM,68.0,46.0,45,29.67,10.0,NNW,16.1,-,N/A,,Clear,340,2013-10-28 08:52:00
2:52 AM,66.9,45.0,45,29.68,8.0,Variable,5.8,16.1,N/A,,Clear,0,2013-10-28 09:52:00
3:52 AM,69.1,45.0,42,29.68,10.0,Variable,3.5,-,N/A,,Mostly Cloudy,0,2013-10-28 10:52:00
4:52 AM,68.0,46.0,45,29.66,10.0,ENE,4.6,-,N/A,,Overcast,70,2013-10-28 11:52:00
5:52 AM,62.1,46.0,56,29.67,10.0,Calm,Calm,-,N/A,,Mostly Cloudy,0,2013-10-28 12:52:00
6:52 AM,64.9,46.0,50,29.67,10.0,Variable,3.5,-,N/A,,Clear,0,2013-10-28 13:52:00
7:52 AM,66.0,46.9,50,29.70,10.0,Calm,Calm,-,N/A,,Clear,0,2013-10-28 14:52:00
8:37 AM,71.6,44.6,38,29.70,6.0,Variable,4.6,-,N/A,,Haze,0,2013-10-28 15:37:00
8:52 AM,71.1,44.1,38,29.71,4.0,West,17.3,25.3,N/A,,Haze,280,2013-10-28 15:52:00
9:02 AM,71.6,42.8,35,29.70,2.5,West,12.7,28.8,N/A,,Haze,280,2013-10-28 16:02:00
9:14 AM,71.6,42.8,35,29.71,2.0,West,17.3,28.8,N/A,,Haze,260,2013-10-28 16:14:00
9:21 AM,73.4,42.8,33,29.72,3.0,West,18.4,26.5,N/A,,Haze,270,2013-10-28 16:21:00
9:36 AM,73.4,44.6,36,29.73,2.0,WNW,17.3,29.9,N/A,,Haze,290,2013-10-28 16:36:00
9:43 AM,73.4,44.6,36,29.73,2.0,West,18.4,27.6,N/A,,Haze,260,2013-10-28 16:43:00
9:52 AM,72.0,44.1,37,29.73,1.2,West,19.6,39.1,N/A,,Haze,270,2013-10-28 16:52:00
10:33 AM,73.4,44.6,36,29.74,2.0,West,25.3,46.0,N/A,,Haze,260,2013-10-28 17:33:00
10:43 AM,73.4,44.6,36,29.74,4.0,WSW,24.2,38.0,N/A,,Haze,250,2013-10-28 17:43:00
10:52 AM,73.0,43.0,34,29.75,4.0,West,28.8,40.3,N/A,,Haze,270,2013-10-28 17:52:00
11:52 AM,73.9,42.1,32,29.76,1.5,West,23.0,41.4,N/A,,Haze,270,2013-10-28 18:52:00
11:59 AM,73.4,42.8,33,29.76,3.0,West,25.3,32.2,N/A,,Haze,270,2013-10-28 18:59:00
12:14 PM,75.2,42.8,31,29.76,9.0,West,20.7,32.2,N/A,,Partly Cloudy,260,2013-10-28 19:14:00
12:52 PM,75.0,41.0,29,29.76,7.0,WSW,18.4,36.8,N/A,,Partly Cloudy,250,2013-10-28 19:52:00
1:25 PM,75.2,39.2,27,29.74,6.0,West,15.0,31.1,N/A,,Haze,260,2013-10-28 20:25:00
1:52 PM,75.9,39.0,26,29.73,7.0,West,16.1,33.4,N/A,,Clear,260,2013-10-28 20:52:00
2:26 PM,75.2,37.4,25,29.71,10.0,WNW,17.3,27.6,N/A,,Clear,290,2013-10-28 21:26:00
2:34 PM,75.2,39.2,27,29.72,4.0,West,19.6,28.8,N/A,,Haze,280,2013-10-28 21:34:00
2:52 PM,75.0,39.0,27,29.72,3.0,West,21.9,47.2,N/A,,Haze,280,2013-10-28 21:52:00
3:01 PM,75.2,37.4,25,29.72,2.5,West,24.2,41.4,N/A,,Haze,280,2013-10-28 22:01:00
3:16 PM,73.4,37.4,27,29.72,3.0,West,16.1,43.7,N/A,,Haze,280,2013-10-28 22:16:00
3:52 PM,73.9,37.0,26,29.73,4.0,West,23.0,33.4,N/A,,Haze,280,2013-10-28 22:52:00
4:02 PM,73.4,37.4,27,29.71,2.5,West,29.9,50.6,N/A,,Haze,280,2013-10-28 23:02:00
4:09 PM,73.4,35.6,25,29.72,1.0,West,26.5,50.6,N/A,,Haze,280,2013-10-28 23:09:00
4:15 PM,73.4,35.6,25,29.71,2.5,West,17.3,36.8,N/A,,Haze,280,2013-10-28 23:15:00
4:23 PM,73.4,35.6,25,29.72,4.0,West,25.3,36.8,N/A,,Haze,270,2013-10-28 23:23:00
4:29 PM,73.4,35.6,25,29.71,1.5,West,28.8,40.3,N/A,,Haze,270,2013-10-28 23:29:00
4:36 PM,71.6,35.6,27,29.72,1.2,West,19.6,40.3,N/A,,Haze,270,2013-10-28 23:36:00
4:52 PM,72.0,34.0,25,29.73,2.5,West,27.6,34.5,N/A,,Haze,270,2013-10-28 23:52:00
4:58 PM,71.6,33.8,25,29.73,1.8,West,26.5,38.0,N/A,,Haze,280,2013-10-28 23:58:00
5:05 PM,71.6,35.6,27,29.73,3.0,West,25.3,39.1,N/A,,Haze,280,2013-10-29 00:05:00
5:12 PM,71.6,35.6,27,29.73,4.0,West,31.1,39.1,N/A,,Haze,270,2013-10-29 00:12:00
5:29 PM,69.8,33.8,27,29.73,2.0,WNW,23.0,40.3,N/A,,Haze,290,2013-10-29 00:29:00
5:39 PM,69.8,33.8,27,29.74,4.0,WNW,23.0,39.1,N/A,,Haze,290,2013-10-29 00:39:00
5:52 PM,69.1,35.1,29,29.74,8.0,West,27.6,38.0,N/A,,Partly Cloudy,270,2013-10-29 00:52:00
6:52 PM,68.0,36.0,31,29.75,4.0,WNW,24.2,34.5,N/A,,Haze,290,2013-10-29 01:52:00
7:52 PM,66.9,37.0,33,29.78,7.0,West,23.0,34.5,N/A,,Clear,270,2013-10-29 02:52:00
8:15 PM,66.2,37.4,35,29.78,5.0,WNW,27.6,41.4,N/A,,Haze,290,2013-10-29 03:15:00
8:52 PM,66.9,37.9,34,29.80,9.0,West,27.6,39.1,N/A,,Clear,260,2013-10-29 03:52:00
9:52 PM,66.0,37.0,34,29.82,10.0,West,15.0,25.3,N/A,,Clear,270,2013-10-29 04:52:00
10:52 PM,63.0,42.1,46,29.84,10.0,WNW,8.1,-,N/A,,Mostly Cloudy,300,2013-10-29 05:52:00
11:52 PM,63.0,42.1,46,29.84,10.0,NW,5.8,-,N/A,,Overcast,320,2013-10-29 06:52:00